Torna al catalogo

SAUDISAT 4

AttivoRadioamatoreSSO
NORAD 40016·PAYLOAD·🇸🇦 Saudi Arabia

Lanciato Jun 19, 2014 da Dombarovsky

Loading…

Prossimi Passaggi (prossime 24 ore)

TLE

AggiornatoSource: Space-Track

Epoca: Sep 14, 2026, 04:25 UTC

1 40016U 14033G   26257.18428443  .00000557  00000-0  79863-4 0  9992
2 40016  97.7718  40.3153 0045580 142.3618 218.0799 14.79638903659236

Traccia SAUDISAT 4 in tempo reale con AllMySat

Download on the App Store